| time (UTC) | temp F | wind direction | speed MPH | gust MPH | rain 1hr in | rain 24hr in | rain mn in | humidity % | barometer mb |
| 20260507101513 | 53 | 297 | 5.0 | 0.0 | 0.00 | 0.00 | 0.00 | 51 | 1010.1 |
| 20260507101029 | 53 | 306 | 4.0 | 0.0 | 0.00 | 0.00 | 0.00 | 51 | 1010.2 |
| 20260507100547 | 53 | 305 | 3.0 | 0.0 | 0.00 | 0.00 | 0.00 | 51 | 1010.1 |
| 20260507095512 | 53 | 314 | 1.0 | 0.0 | 0.00 | 0.00 | 0.00 | 51 | 1010.3 |
| 20260507095027 | 53 | 314 | 1.0 | 0.0 | 0.00 | 0.00 | 0.00 | 51 | 1010.3 |
| 20260507094546 | 52 | 355 | 1.0 | 0.0 | 0.00 | 0.00 | 0.00 | 51 | 1010.4 |
| 20260507094003 | 53 | 355 | 3.0 | 0.0 | 0.00 | 0.00 | 0.00 | 51 | 1010.6 |
| 20260507093522 | 52 | 355 | 3.0 | 0.0 | 0.00 | 0.00 | 0.00 | 51 | 1010.6 |
| 20260507093046 | 53 | 44 | 3.0 | 0.0 | 0.00 | 0.00 | 0.00 | 51 | 1010.6 |
| 20260507092554 | 53 | 44 | 3.0 | 0.0 | 0.00 | 0.00 | 0.00 | 51 | 1010.5 |
| 20260507092010 | 52 | 317 | 2.0 | 0.0 | 0.00 | 0.00 | 0.00 | 52 | 1010.6 |
| 20260507091529 | 51 | 82 | 2.0 | 0.0 | 0.00 | 0.00 | 0.00 | 53 | 1010.5 |
| 20260507091050 | 51 | 232 | 1.0 | 0.0 | 0.00 | 0.00 | 0.00 | 53 | 1010.5 |
| 20260507090604 | 52 | 233 | 2.0 | 0.0 | 0.00 | 0.00 | 0.00 | 52 | 1010.5 |
| 20260507090013 | 53 | 233 | 2.0 | 0.0 | 0.00 | 0.00 | 0.00 | 50 | 1010.3 |
| 20260507085530 | 53 | 231 | 2.0 | 0.0 | 0.00 | 0.00 | 0.00 | 49 | 1010.4 |
| 20260507085050 | 53 | 231 | 2.0 | 0.0 | 0.00 | 0.00 | 0.00 | 50 | 1010.3 |
| 20260507084502 | 53 | 233 | 1.0 | 0.0 | 0.00 | 0.00 | 0.00 | 49 | 1010.3 |
| 20260507084018 | 53 | 233 | 1.0 | 0.0 | 0.00 | 0.00 | 0.00 | 49 | 1010.4 |
| 20260507083538 | 53 | 233 | 1.0 | 0.0 | 0.00 | 0.00 | 0.00 | 49 | 1010.5 |
| 20260507083054 | 53 | 233 | 2.0 | 0.0 | 0.00 | 0.00 | 0.00 | 50 | 1010.5 |
| 20260507082505 | 52 | 185 | 2.0 | 0.0 | 0.00 | 0.00 | 0.00 | 50 | 1010.5 |
| 20260507082023 | 52 | 198 | 2.0 | 0.0 | 0.00 | 0.00 | 0.00 | 50 | 1010.6 |
| 20260507081535 | 52 | 225 | 3.0 | 0.0 | 0.00 | 0.00 | 0.00 | 50 | 1010.6 |
| 20260507081048 | 52 | 273 | 3.0 | 0.0 | 0.00 | 0.00 | 0.00 | 50 | 1010.7 |
| 20260507080608 | 52 | 360 | 3.0 | 0.0 | 0.00 | 0.00 | 0.00 | 50 | 1010.7 |
| 20260507080020 | 52 | 248 | 4.0 | 0.0 | 0.00 | 0.00 | 0.00 | 50 | 1010.8 |
| 20260507075536 | 52 | 244 | 4.0 | 0.0 | 0.00 | 0.00 | 0.00 | 49 | 1010.8 |
| 20260507075059 | 52 | 207 | 4.0 | 0.0 | 0.00 | 0.00 | 0.00 | 49 | 1010.8 |
| 20260507074507 | 53 | 212 | 3.0 | 0.0 | 0.00 | 0.00 | 0.00 | 49 | 1010.9 |
| 20260507074026 | 53 | 221 | 3.0 | 0.0 | 0.00 | 0.00 | 0.00 | 50 | 1010.9 |
| 20260507073539 | 53 | 221 | 4.0 | 0.0 | 0.00 | 0.00 | 0.00 | 50 | 1010.9 |
| 20260507073056 | 53 | 221 | 4.0 | 0.0 | 0.00 | 0.00 | 0.00 | 51 | 1010.9 |
| 20260507072513 | 52 | 221 | 4.0 | 0.0 | 0.00 | 0.00 | 0.00 | 52 | 1011.0 |
| 20260507072028 | 51 | 130 | 4.0 | 0.0 | 0.00 | 0.00 | 0.00 | 52 | 1011.0 |
| 20260507071601 | 50 | 150 | 5.0 | 0.0 | 0.00 | 0.00 | 0.00 | 52 | 1011.2 |
| 20260507071102 | 50 | 148 | 5.0 | 0.0 | 0.00 | 0.00 | 0.00 | 52 | 1011.2 |
| 20260507070514 | 51 | 127 | 6.0 | 0.0 | 0.00 | 0.00 | 0.00 | 51 | 1011.2 |
| 20260507070026 | 51 | 170 | 5.0 | 0.0 | 0.00 | 0.00 | 0.00 | 51 | 1011.4 |
| 20260507065548 | 51 | 157 | 5.0 | 0.0 | 0.00 | 0.00 | 0.00 | 51 | 1011.4 |
| 20260507065002 | 50 | 165 | 3.0 | 0.0 | 0.00 | 0.00 | 0.00 | 53 | 1011.4 |
| 20260507064519 | 51 | 194 | 2.0 | 0.0 | 0.00 | 0.00 | 0.00 | 52 | 1011.6 |
| 20260507064037 | 51 | 194 | 2.0 | 0.0 | 0.00 | 0.00 | 0.00 | 52 | 1011.5 |
| 20260507063556 | 50 | 138 | 2.0 | 0.0 | 0.00 | 0.00 | 0.00 | 52 | 1011.4 |
| 20260507063006 | 50 | 183 | 4.0 | 0.0 | 0.00 | 0.00 | 0.00 | 52 | 1011.6 |
| 20260507062528 | 49 | 182 | 5.0 | 0.0 | 0.00 | 0.00 | 0.00 | 54 | 1011.6 |
| 20260507062044 | 49 | 188 | 6.0 | 0.0 | 0.00 | 0.00 | 0.00 | 54 | 1011.7 |
| 20260507061505 | 49 | 140 | 6.0 | 0.0 | 0.00 | 0.00 | 0.00 | 54 | 1011.5 |
| 20260507061019 | 50 | 140 | 5.0 | 0.0 | 0.00 | 0.00 | 0.00 | 54 | 1011.5 |
| 20260507060532 | 50 | 134 | 3.0 | 0.0 | 0.00 | 0.00 | 0.00 | 51 | 1011.5 |
| 20260507060047 | 51 | 188 | 2.0 | 0.0 | 0.00 | 0.00 | 0.00 | 50 | 1011.5 |
| 20260507055603 | 51 | 218 | 3.0 | 0.0 | 0.00 | 0.00 | 0.00 | 50 | 1011.6 |
| 20260507055015 | 51 | 218 | 4.0 | 0.0 | 0.00 | 0.00 | 0.00 | 50 | 1011.7 |
| 20260507054531 | 52 | 227 | 4.0 | 0.0 | 0.00 | 0.00 | 0.00 | 49 | 1011.8 |
| 20260507054046 | 52 | 247 | 4.0 | 0.0 | 0.00 | 0.00 | 0.00 | 47 | 1011.8 |
| 20260507053501 | 52 | 229 | 5.0 | 0.0 | 0.00 | 0.00 | 0.00 | 47 | 1011.9 |
| 20260507053021 | 51 | 229 | 4.0 | 0.0 | 0.00 | 0.00 | 0.00 | 48 | 1011.8 |
| 20260507052538 | 51 | 97 | 3.0 | 0.0 | 0.00 | 0.00 | 0.00 | 48 | 1011.8 |
| 20260507052057 | 52 | 50 | 2.0 | 0.0 | 0.00 | 0.00 | 0.00 | 48 | 1011.8 |
| 20260507051519 | 51 | 50 | 1.0 | 0.0 | 0.00 | 0.00 | 0.00 | 48 | 1011.8 |
| 20260507051025 | 51 | 50 | 2.0 | 0.0 | 0.00 | 0.00 | 0.00 | 49 | 1011.8 |
| 20260507050543 | 51 | 50 | 2.0 | 0.0 | 0.00 | 0.00 | 0.00 | 49 | 1011.9 |
| 20260507050104 | 51 | 50 | 2.0 | 0.0 | 0.00 | 0.00 | 0.00 | 49 | 1011.9 |
| 20260507045511 | 51 | 50 | 4.0 | 0.0 | 0.00 | 0.00 | 0.00 | 49 | 1011.9 |
| 20260507045028 | 52 | 178 | 5.0 | 0.0 | 0.00 | 0.00 | 0.00 | 49 | 1012.2 |
| 20260507044549 | 52 | 195 | 6.0 | 0.0 | 0.00 | 0.00 | 0.00 | 48 | 1011.9 |
| 20260507044104 | 52 | 205 | 5.0 | 0.0 | 0.00 | 0.00 | 0.00 | 48 | 1012.0 |
| 20260507043513 | 52 | 204 | 4.0 | 0.0 | 0.00 | 0.00 | 0.00 | 48 | 1012.1 |
| 20260507043030 | 51 | 211 | 4.0 | 0.0 | 0.00 | 0.00 | 0.00 | 50 | 1012.1 |
| 20260507042545 | 51 | 211 | 4.0 | 0.0 | 0.00 | 0.00 | 0.00 | 51 | 1012.1 |
| 20260507042103 | 51 | 211 | 3.0 | 0.0 | 0.00 | 0.00 | 0.00 | 51 | 1012.1 |
| 20260507041510 | 52 | 215 | 3.0 | 0.0 | 0.00 | 0.00 | 0.00 | 51 | 1012.1 |
| 20260507041026 | 53 | 215 | 4.0 | 0.0 | 0.00 | 0.00 | 0.00 | 49 | 1012.2 |
| 20260507040544 | 53 | 215 | 5.0 | 0.0 | 0.00 | 0.00 | 0.00 | 49 | 1012.2 |
| 20260507040118 | 53 | 215 | 6.0 | 0.0 | 0.00 | 0.00 | 0.00 | 49 | 1012.2 |
| 20260507035512 | 54 | 215 | 6.0 | 0.0 | 0.00 | 0.00 | 0.00 | 47 | 1012.1 |
| 20260507035029 | 54 | 219 | 5.0 | 0.0 | 0.00 | 0.00 | 0.00 | 46 | 1012.1 |
| 20260507034547 | 53 | 315 | 4.0 | 0.0 | 0.00 | 0.00 | 0.00 | 46 | 1012.1 |
| 20260507034102 | 52 | 315 | 3.0 | 0.0 | 0.00 | 0.00 | 0.00 | 48 | 1012.1 |
| 20260507033513 | 52 | 315 | 3.0 | 0.0 | 0.00 | 0.00 | 0.00 | 52 | 1012.1 |
| 20260507033039 | 52 | 315 | 3.0 | 0.0 | 0.00 | 0.00 | 0.00 | 52 | 1012.1 |
| 20260507032547 | 53 | 315 | 3.0 | 0.0 | 0.00 | 0.00 | 0.00 | 51 | 1012.1 |
| 20260507032001 | 54 | 315 | 2.0 | 0.0 | 0.00 | 0.00 | 0.00 | 48 | 1012.0 |
| 20260507031521 | 54 | 315 | 3.0 | 0.0 | 0.00 | 0.00 | 0.00 | 46 | 1012.0 |
| 20260507031040 | 54 | 315 | 4.0 | 0.0 | 0.00 | 0.00 | 0.00 | 44 | 1012.0 |
| 20260507030552 | 54 | 315 | 4.0 | 0.0 | 0.00 | 0.00 | 0.00 | 45 | 1012.1 |
| 20260507030010 | 54 | 315 | 3.0 | 0.0 | 0.00 | 0.00 | 0.00 | 45 | 1012.1 |
| 20260507025529 | 54 | 315 | 3.0 | 0.0 | 0.00 | 0.00 | 0.00 | 46 | 1012.2 |
| 20260507025047 | 55 | 315 | 3.0 | 0.0 | 0.00 | 0.00 | 0.00 | 46 | 1012.1 |
| 20260507024606 | 55 | 320 | 3.0 | 0.0 | 0.00 | 0.00 | 0.00 | 44 | 1012.2 |
| 20260507024015 | 55 | 320 | 3.0 | 0.0 | 0.00 | 0.00 | 0.00 | 42 | 1012.5 |
| 20260507023531 | 56 | 320 | 2.0 | 0.0 | 0.00 | 0.00 | 0.00 | 42 | 1012.5 |
| 20260507023050 | 57 | 320 | 2.0 | 0.0 | 0.00 | 0.00 | 0.00 | 41 | 1012.4 |
| 20260507022604 | 58 | 320 | 2.0 | 0.0 | 0.00 | 0.00 | 0.00 | 39 | 1012.3 |
| 20260507022013 | 58 | 320 | 1.0 | 0.0 | 0.00 | 0.00 | 0.00 | 36 | 1012.4 |
| 20260507021527 | 58 | 320 | 1.0 | 0.0 | 0.00 | 0.00 | 0.00 | 35 | 1012.5 |
| 20260507021041 | 59 | 320 | 1.0 | 0.0 | 0.00 | 0.00 | 0.00 | 35 | 1012.5 |
| 20260507020604 | 59 | 320 | 2.0 | 0.0 | 0.00 | 0.00 | 0.00 | 34 | 1012.6 |
| 20260507020008 | 59 | 320 | 2.0 | 0.0 | 0.00 | 0.00 | 0.00 | 34 | 1012.6 |
| 20260507015524 | 59 | 320 | 2.0 | 0.0 | 0.00 | 0.00 | 0.00 | 34 | 1012.6 |
| 20260507015042 | 60 | 320 | 1.0 | 0.0 | 0.00 | 0.00 | 0.00 | 34 | 1012.6 |
| 20260507014605 | 60 | 320 | 1.0 | 0.0 | 0.00 | 0.00 | 0.00 | 33 | 1012.7 |
| 20260507014011 | 60 | 320 | 3.0 | 0.0 | 0.00 | 0.00 | 0.00 | 33 | 1012.6 |
| 20260507013522 | 60 | 320 | 4.0 | 0.0 | 0.00 | 0.00 | 0.00 | 33 | 1012.7 |
| 20260507013039 | 60 | 320 | 5.0 | 0.0 | 0.00 | 0.00 | 0.00 | 32 | 1012.7 |
| 20260507012552 | 61 | 320 | 6.0 | 0.0 | 0.00 | 0.00 | 0.00 | 31 | 1012.8 |
| 20260507012004 | 61 | 323 | 8.0 | 0.0 | 0.00 | 0.00 | 0.00 | 30 | 1012.8 |
| 20260507011517 | 62 | 321 | 9.0 | 0.0 | 0.00 | 0.00 | 0.00 | 29 | 1012.9 |
| 20260507011032 | 63 | 316 | 10.0 | 0.0 | 0.00 | 0.00 | 0.00 | 28 | 1012.9 |
| 20260507010551 | 63 | 302 | 12.0 | 0.0 | 0.00 | 0.00 | 0.00 | 28 | 1012.9 |
| 20260507010003 | 63 | 301 | 12.0 | 0.0 | 0.00 | 0.00 | 0.00 | 28 | 1013.1 |
| 20260507005516 | 63 | 331 | 10.0 | 0.0 | 0.00 | 0.00 | 0.00 | 28 | 1013.1 |
| 20260507005033 | 63 | 304 | 9.0 | 0.0 | 0.00 | 0.00 | 0.00 | 28 | 1013.0 |
| 20260507004559 | 62 | 322 | 8.0 | 0.0 | 0.00 | 0.00 | 0.00 | 29 | 1013.2 |
| 20260507004103 | 62 | 299 | 8.0 | 0.0 | 0.00 | 0.00 | 0.00 | 28 | 1013.2 |
| 20260507003512 | 62 | 319 | 7.0 | 0.0 | 0.00 | 0.00 | 0.00 | 28 | 1013.2 |
| 20260507003030 | 63 | 313 | 7.0 | 0.0 | 0.00 | 0.00 | 0.00 | 29 | 1013.3 |
| 20260507002550 | 63 | 328 | 7.0 | 0.0 | 0.00 | 0.00 | 0.00 | 28 | 1013.3 |
| 20260507002006 | 63 | 303 | 4.0 | 0.0 | 0.00 | 0.00 | 0.00 | 29 | 1013.2 |
| 20260507001519 | 62 | 11 | 3.0 | 0.0 | 0.00 | 0.00 | 0.00 | 28 | 1013.3 |
| 20260507001033 | 62 | 11 | 4.0 | 0.0 | 0.00 | 0.00 | 0.00 | 28 | 1013.3 |
| 20260507000548 | 62 | 342 | 6.0 | 0.0 | 0.00 | 0.00 | 0.00 | 28 | 1013.4 |
| 20260507000104 | 63 | 342 | 9.0 | 0.0 | 0.00 | 0.00 | 0.00 | 29 | 1013.4 |
| 20260506235511 | 64 | 313 | 10.0 | 0.0 | 0.00 | 0.00 | 0.00 | 28 | 1013.3 |
| 20260506235022 | 63 | 360 | 8.0 | 0.0 | 0.00 | 0.00 | 0.00 | 28 | 1013.3 |
| 20260506234538 | 63 | 278 | 8.0 | 0.0 | 0.00 | 0.00 | 0.00 | 28 | 1013.4 |
| 20260506234051 | 63 | 277 | 6.0 | 0.0 | 0.00 | 0.00 | 0.00 | 28 | 1013.6 |
| 20260506233506 | 63 | 355 | 6.0 | 0.0 | 0.00 | 0.00 | 0.00 | 28 | 1013.8 |
| 20260506233019 | 63 | 290 | 8.0 | 0.0 | 0.00 | 0.00 | 0.00 | 29 | 1013.9 |
| 20260506232531 | 62 | 267 | 10.0 | 0.0 | 0.00 | 0.00 | 0.00 | 28 | 1013.9 |
| 20260506232044 | 62 | 269 | 9.0 | 0.0 | 0.00 | 0.00 | 0.00 | 29 | 1014.1 |
| 20260506231602 | 61 | 295 | 7.0 | 0.0 | 0.00 | 0.00 | 0.00 | 29 | 1014.1 |
| 20260506231008 | 61 | 263 | 6.0 | 0.0 | 0.00 | 0.00 | 0.00 | 31 | 1014.3 |
| 20260506230517 | 61 | 355 | 7.0 | 0.0 | 0.00 | 0.00 | 0.00 | 31 | 1014.3 |
| 20260506230037 | 60 | 12 | 8.0 | 0.0 | 0.00 | 0.00 | 0.00 | 31 | 1014.3 |
| 20260506225551 | 60 | 319 | 8.0 | 0.0 | 0.00 | 0.00 | 0.00 | 31 | 1014.3 |
| 20260506225003 | 60 | 331 | 8.0 | 0.0 | 0.00 | 0.00 | 0.00 | 31 | 1014.4 |
| 20260506224520 | 60 | 290 | 6.0 | 0.0 | 0.00 | 0.00 | 0.00 | 30 | 1014.5 |
| 20260506224039 | 60 | 290 | 6.0 | 0.0 | 0.00 | 0.00 | 0.00 | 30 | 1014.5 |
| 20260506223555 | 60 | 292 | 7.0 | 0.0 | 0.00 | 0.00 | 0.00 | 31 | 1014.5 |
| 20260506223110 | 60 | 296 | 9.0 | 0.0 | 0.00 | 0.00 | 0.00 | 30 | 1014.7 |
| 20260506222515 | 60 | 255 | 10.0 | 0.0 | 0.00 | 0.00 | 0.00 | 29 | 1014.7 |
| 20260506222034 | 61 | 288 | 10.0 | 0.0 | 0.00 | 0.00 | 0.00 | 29 | 1014.7 |
| 20260506221546 | 60 | 279 | 10.0 | 0.0 | 0.00 | 0.00 | 0.00 | 30 | 1014.9 |
| 20260506221101 | 60 | 315 | 12.0 | 0.0 | 0.00 | 0.00 | 0.00 | 30 | 1015.1 |
| 20260506220516 | 60 | 284 | 14.0 | 0.0 | 0.00 | 0.00 | 0.00 | 29 | 1015.2 |
| 20260506220038 | 60 | 360 | 10.0 | 0.0 | 0.00 | 0.00 | 0.00 | 30 | 1015.3 |
| 20260506215548 | 60 | 324 | 8.0 | 0.0 | 0.00 | 0.00 | 0.00 | 30 | 1015.3 |
| 20260506215058 | 60 | 311 | 9.0 | 0.0 | 0.00 | 0.00 | 0.00 | 30 | 1015.4 |
| 20260506214510 | 60 | 325 | 11.0 | 0.0 | 0.00 | 0.00 | 0.00 | 29 | 1015.5 |
| 20260506214025 | 60 | 286 | 12.0 | 0.0 | 0.00 | 0.00 | 0.00 | 29 | 1015.6 |
| 20260506213543 | 60 | 277 | 13.0 | 0.0 | 0.00 | 0.00 | 0.00 | 30 | 1015.7 |
| 20260506213056 | 60 | 281 | 13.0 | 0.0 | 0.00 | 0.00 | 0.00 | 30 | 1015.6 |
| 20260506212507 | 59 | 340 | 13.0 | 0.0 | 0.00 | 0.00 | 0.00 | 31 | 1015.6 |
| 20260506212026 | 59 | 314 | 14.0 | 0.0 | 0.00 | 0.00 | 0.00 | 30 | 1015.6 |
| 20260506211541 | 59 | 314 | 13.0 | 0.0 | 0.00 | 0.00 | 0.00 | 29 | 1015.7 |
| 20260506211059 | 59 | 336 | 14.0 | 0.0 | 0.00 | 0.00 | 0.00 | 30 | 1015.8 |
| 20260506210513 | 60 | 281 | 15.0 | 0.0 | 0.00 | 0.00 | 0.00 | 30 | 1016.0 |
| 20260506210027 | 60 | 327 | 14.0 | 0.0 | 0.00 | 0.00 | 0.00 | 30 | 1016.1 |
| 20260506205542 | 59 | 334 | 14.0 | 0.0 | 0.00 | 0.00 | 0.00 | 30 | 1016.2 |
| 20260506205101 | 58 | 327 | 12.0 | 0.0 | 0.00 | 0.00 | 0.00 | 30 | 1016.2 |
| 20260506204516 | 58 | 331 | 8.0 | 0.0 | 0.00 | 0.00 | 0.00 | 32 | 1016.2 |
| 20260506204032 | 58 | 25 | 7.0 | 0.0 | 0.00 | 0.00 | 0.00 | 32 | 1016.4 |
| 20260506203548 | 58 | 26 | 5.0 | 0.0 | 0.00 | 0.00 | 0.00 | 33 | 1016.5 |
| 20260506203059 | 57 | 69 | 5.0 | 0.0 | 0.00 | 0.00 | 0.00 | 33 | 1016.6 |
| 20260506202510 | 56 | 74 | 6.0 | 0.0 | 0.00 | 0.00 | 0.00 | 33 | 1016.7 |
| 20260506202026 | 57 | 51 | 4.0 | 0.0 | 0.00 | 0.00 | 0.00 | 32 | 1016.7 |
| 20260506201542 | 57 | 23 | 4.0 | 0.0 | 0.00 | 0.00 | 0.00 | 31 | 1016.6 |
| 20260506201057 | 56 | 360 | 4.0 | 0.0 | 0.00 | 0.00 | 0.00 | 32 | 1016.6 |
| 20260506200510 | 56 | 171 | 4.0 | 0.0 | 0.00 | 0.00 | 0.00 | 32 | 1016.8 |
| 20260506200027 | 55 | 318 | 5.0 | 0.0 | 0.00 | 0.00 | 0.00 | 32 | 1016.8 |
| 20260506195539 | 55 | 300 | 5.0 | 0.0 | 0.00 | 0.00 | 0.00 | 31 | 1016.8 |
| 20260506195057 | 55 | 260 | 4.0 | 0.0 | 0.00 | 0.00 | 0.00 | 31 | 1016.9 |
| 20260506194507 | 55 | 44 | 4.0 | 0.0 | 0.00 | 0.00 | 0.00 | 32 | 1017.1 |
| 20260506194022 | 55 | 297 | 4.0 | 0.0 | 0.00 | 0.00 | 0.00 | 32 | 1017.2 |
| 20260506193538 | 55 | 305 | 4.0 | 0.0 | 0.00 | 0.00 | 0.00 | 32 | 1017.2 |
| 20260506193055 | 55 | 57 | 5.0 | 0.0 | 0.00 | 0.00 | 0.00 | 33 | 1017.3 |
| 20260506192501 | 54 | 87 | 5.0 | 0.0 | 0.00 | 0.00 | 0.00 | 33 | 1017.4 |
| 20260506192019 | 54 | 320 | 6.0 | 0.0 | 0.00 | 0.00 | 0.00 | 32 | 1017.4 |
| 20260506191545 | 54 | 15 | 5.0 | 0.0 | 0.00 | 0.00 | 0.00 | 32 | 1017.6 |
| 20260506191107 | 54 | 50 | 4.0 | 0.0 | 0.00 | 0.00 | 0.00 | 33 | 1017.5 |
| 20260506190521 | 54 | 265 | 4.0 | 0.0 | 0.00 | 0.00 | 0.00 | 31 | 1017.7 |
| 20260506190034 | 53 | 84 | 5.0 | 0.0 | 0.00 | 0.00 | 0.00 | 32 | 1017.8 |
| 20260506185550 | 53 | 34 | 5.0 | 0.0 | 0.00 | 0.00 | 0.00 | 32 | 1017.9 |
| 20260506185104 | 53 | 42 | 5.0 | 0.0 | 0.00 | 0.00 | 0.00 | 31 | 1017.9 |
| 20260506184518 | 53 | 45 | 4.0 | 0.0 | 0.00 | 0.00 | 0.00 | 32 | 1018.2 |
| 20260506184032 | 53 | 117 | 4.0 | 0.0 | 0.00 | 0.00 | 0.00 | 32 | 1018.3 |
| 20260506183548 | 52 | 70 | 4.0 | 0.0 | 0.00 | 0.00 | 0.00 | 32 | 1018.3 |
| 20260506183125 | 52 | 124 | 3.0 | 0.0 | 0.00 | 0.00 | 0.00 | 33 | 1018.4 |
| 20260506182512 | 51 | 64 | 3.0 | 0.0 | 0.00 | 0.00 | 0.00 | 34 | 1018.5 |
| 20260506182026 | 50 | 324 | 4.0 | 0.0 | 0.00 | 0.00 | 0.00 | 32 | 1018.4 |
| 20260506181549 | 50 | 340 | 4.0 | 0.0 | 0.00 | 0.00 | 0.00 | 31 | 1018.6 |
| 20260506181100 | 50 | 18 | 4.0 | 0.0 | 0.00 | 0.00 | 0.00 | 32 | 1018.6 |
| 20260506180510 | 50 | 9 | 4.0 | 0.0 | 0.00 | 0.00 | 0.00 | 31 | 1018.7 |
| 20260506180026 | 50 | 52 | 3.0 | 0.0 | 0.00 | 0.00 | 0.00 | 31 | 1018.8 |
| 20260506175542 | 50 | 55 | 3.0 | 0.0 | 0.00 | 0.00 | 0.00 | 31 | 1018.8 |
| 20260506175103 | 49 | 79 | 3.0 | 0.0 | 0.00 | 0.00 | 0.00 | 31 | 1018.9 |
| 20260506174511 | 49 | 52 | 3.0 | 0.0 | 0.00 | 0.00 | 0.00 | 31 | 1018.9 |
| 20260506174028 | 49 | 111 | 3.0 | 0.0 | 0.00 | 0.00 | 0.00 | 31 | 1019.0 |
| 20260506173549 | 48 | 55 | 3.0 | 0.0 | 0.00 | 0.00 | 0.00 | 29 | 1019.0 |
| 20260506173140 | 48 | 94 | 3.0 | 0.0 | 0.00 | 0.00 | 0.00 | 29 | 1019.0 |
| 20260506172514 | 48 | 84 | 3.0 | 0.0 | 0.00 | 0.00 | 0.00 | 30 | 1018.9 |
| 20260506172028 | 47 | 101 | 3.0 | 0.0 | 0.00 | 0.00 | 0.00 | 30 | 1019.0 |
| 20260506171547 | 47 | 91 | 4.0 | 0.0 | 0.00 | 0.00 | 0.00 | 31 | 1019.1 |
| 20260506171004 | 47 | 70 | 4.0 | 0.0 | 0.00 | 0.00 | 0.00 | 29 | 1019.2 |
| 20260506170523 | 46 | 89 | 3.0 | 0.0 | 0.00 | 0.00 | 0.00 | 28 | 1019.3 |
| 20260506170034 | 46 | 285 | 4.0 | 0.0 | 0.00 | 0.00 | 0.00 | 28 | 1019.1 |
| 20260506165548 | 45 | 131 | 4.0 | 0.0 | 0.00 | 0.00 | 0.00 | 28 | 1019.1 |
| 20260506165107 | 45 | 148 | 5.0 | 0.0 | 0.00 | 0.00 | 0.00 | 31 | 1019.3 |
| 20260506164519 | 45 | 90 | 5.0 | 0.0 | 0.00 | 0.00 | 0.00 | 32 | 1019.3 |
| 20260506164033 | 45 | 80 | 5.0 | 0.0 | 0.00 | 0.00 | 0.00 | 33 | 1019.4 |
| 20260506163552 | 45 | 88 | 5.0 | 0.0 | 0.00 | 0.00 | 0.00 | 34 | 1019.5 |
| 20260506163007 | 44 | 198 | 5.0 | 0.0 | 0.00 | 0.00 | 0.00 | 35 | 1019.4 |
| 20260506162523 | 44 | 105 | 6.0 | 0.0 | 0.00 | 0.00 | 0.00 | 37 | 1019.5 |
| 20260506162043 | 43 | 168 | 6.0 | 0.0 | 0.00 | 0.00 | 0.00 | 41 | 1019.6 |
| 20260506161602 | 42 | 186 | 6.0 | 0.0 | 0.00 | 0.00 | 0.00 | 41 | 1019.6 |
| 20260506161016 | 42 | 206 | 6.0 | 0.0 | 0.00 | 0.00 | 0.00 | 41 | 1019.8 |
| 20260506160531 | 41 | 137 | 6.0 | 0.0 | 0.00 | 0.00 | 0.00 | 41 | 1019.8 |
| 20260506160050 | 41 | 180 | 7.0 | 0.0 | 0.00 | 0.00 | 0.00 | 41 | 1019.8 |
| 20260506155502 | 40 | 209 | 7.0 | 0.0 | 0.00 | 0.00 | 0.00 | 42 | 1019.8 |
| 20260506155021 | 40 | 171 | 7.0 | 0.0 | 0.00 | 0.00 | 0.00 | 43 | 1019.9 |
| 20260506154536 | 39 | 187 | 7.0 | 0.0 | 0.00 | 0.00 | 0.00 | 43 | 1019.9 |
| 20260506154056 | 39 | 179 | 8.0 | 0.0 | 0.00 | 0.00 | 0.00 | 43 | 1019.9 |
| 20260506153505 | 39 | 187 | 8.0 | 0.0 | 0.00 | 0.00 | 0.00 | 43 | 1019.9 |
| 20260506153023 | 39 | 211 | 8.0 | 0.0 | 0.00 | 0.00 | 0.00 | 46 | 1020.0 |
| 20260506152539 | 38 | 184 | 9.0 | 0.0 | 0.00 | 0.00 | 0.00 | 46 | 1020.0 |
| 20260506152055 | 38 | 200 | 9.0 | 0.0 | 0.00 | 0.00 | 0.00 | 45 | 1020.1 |
| 20260506151507 | 38 | 194 | 9.0 | 0.0 | 0.00 | 0.00 | 0.00 | 46 | 1020.2 |
| 20260506151025 | 37 | 173 | 10.0 | 0.0 | 0.00 | 0.00 | 0.00 | 48 | 1020.2 |
| 20260506150540 | 37 | 175 | 10.0 | 0.0 | 0.00 | 0.00 | 0.00 | 50 | 1020.2 |
| 20260506150058 | 37 | 155 | 10.0 | 0.0 | 0.00 | 0.00 | 0.00 | 53 | 1020.2 |
| 20260506145505 | 36 | 163 | 10.0 | 0.0 | 0.00 | 0.00 | 0.00 | 54 | 1020.2 |
| 20260506145022 | 36 | 198 | 10.0 | 0.0 | 0.00 | 0.00 | 0.00 | 56 | 1020.3 |
| 20260506144549 | 35 | 170 | 9.0 | 0.0 | 0.00 | 0.00 | 0.00 | 57 | 1020.4 |
| 20260506144054 | 35 | 201 | 9.0 | 0.0 | 0.00 | 0.00 | 0.00 | 59 | 1020.5 |
| 20260506143505 | 34 | 195 | 9.0 | 0.0 | 0.00 | 0.00 | 0.00 | 63 | 1020.6 |
| 20260506143027 | 33 | 173 | 10.0 | 0.0 | 0.00 | 0.00 | 0.00 | 63 | 1020.6 |
| 20260506142541 | 32 | 150 | 11.0 | 0.0 | 0.00 | 0.00 | 0.00 | 62 | 1020.6 |
| 20260506142059 | 32 | 175 | 11.0 | 0.0 | 0.00 | 0.00 | 0.00 | 62 | 1020.6 |
| 20260506141515 | 32 | 164 | 10.0 | 0.0 | 0.00 | 0.00 | 0.00 | 63 | 1020.6 |
| 20260506141034 | 32 | 144 | 9.0 | 0.0 | 0.00 | 0.00 | 0.00 | 64 | 1020.6 |
| 20260506140552 | 32 | 144 | 9.0 | 0.0 | 0.00 | 0.00 | 0.00 | 67 | 1020.7 |
| 20260506140105 | 32 | 155 | 9.0 | 0.0 | 0.00 | 0.00 | 0.00 | 68 | 1020.7 |
| 20260506135516 | 31 | 154 | 9.0 | 0.0 | 0.00 | 0.00 | 0.00 | 68 | 1020.5 |
| 20260506135032 | 31 | 147 | 9.0 | 0.0 | 0.00 | 0.00 | 0.00 | 69 | 1020.5 |
| 20260506134554 | 31 | 169 | 9.0 | 0.0 | 0.00 | 0.00 | 0.00 | 76 | 1020.5 |
| 20260506134106 | 30 | 154 | 9.0 | 0.0 | 0.00 | 0.00 | 0.00 | 75 | 1020.5 |
| 20260506133515 | 28 | 178 | 8.0 | 0.0 | 0.00 | 0.00 | 0.00 | 75 | 1020.3 |
| 20260506133030 | 28 | 171 | 7.0 | 0.0 | 0.00 | 0.00 | 0.00 | 76 | 1020.3 |
| 20260506132545 | 28 | 170 | 6.0 | 0.0 | 0.00 | 0.00 | 0.00 | 78 | 1020.3 |
| 20260506132100 | 27 | 188 | 6.0 | 0.0 | 0.00 | 0.00 | 0.00 | 79 | 1020.3 |
| 20260506131513 | 26 | 200 | 6.0 | 0.0 | 0.00 | 0.00 | 0.00 | 80 | 1020.3 |
| 20260506131030 | 25 | 194 | 7.0 | 0.0 | 0.00 | 0.00 | 0.00 | 81 | 1020.0 |
| 20260506130549 | 25 | 195 | 7.0 | 0.0 | 0.00 | 0.00 | 0.00 | 82 | 1020.0 |
| 20260506130003 | 23 | 212 | 6.0 | 0.0 | 0.00 | 0.00 | 0.00 | 83 | 1020.2 |
| 20260506125518 | 22 | 209 | 6.0 | 0.0 | 0.00 | 0.00 | 0.00 | 83 | 1020.1 |
| 20260506125037 | 21 | 198 | 6.0 | 0.0 | 0.00 | 0.00 | 0.00 | 83 | 1019.9 |
| 20260506124553 | 21 | 200 | 6.0 | 0.0 | 0.00 | 0.00 | 0.00 | 83 | 1019.9 |
| 20260506124010 | 20 | 198 | 6.0 | 0.0 | 0.00 | 0.00 | 0.00 | 83 | 1020.0 |
| 20260506123530 | 20 | 195 | 5.0 | 0.0 | 0.00 | 0.00 | 0.00 | 82 | 1019.9 |
| 20260506123048 | 20 | 194 | 5.0 | 0.0 | 0.00 | 0.00 | 0.00 | 82 | 1020.1 |
| 20260506122504 | 20 | 184 | 5.0 | 0.0 | 0.00 | 0.00 | 0.00 | 82 | 1019.9 |
| 20260506122021 | 20 | 180 | 5.0 | 0.0 | 0.00 | 0.00 | 0.00 | 83 | 1019.9 |
| 20260506121539 | 20 | 181 | 6.0 | 0.0 | 0.00 | 0.00 | 0.00 | 83 | 1019.9 |
| 20260506121059 | 20 | 182 | 6.0 | 0.0 | 0.00 | 0.00 | 0.00 | 83 | 1019.7 |
| 20260506120511 | 20 | 190 | 6.0 | 0.0 | 0.00 | 0.00 | 0.00 | 83 | 1019.8 |
| 20260506120033 | 20 | 193 | 5.0 | 0.0 | 0.00 | 0.00 | 0.00 | 83 | 1019.8 |
| 20260506115553 | 20 | 196 | 5.0 | 0.0 | 0.00 | 0.00 | 0.00 | 82 | 1019.8 |
| 20260506115008 | 20 | 192 | 5.0 | 0.0 | 0.00 | 0.00 | 0.00 | 83 | 1019.7 |
| 20260506114531 | 19 | 196 | 5.0 | 0.0 | 0.00 | 0.00 | 0.00 | 83 | 1019.8 |
| 20260506114053 | 19 | 189 | 4.0 | 0.0 | 0.00 | 0.00 | 0.00 | 82 | 1019.7 |
| 20260506113507 | 19 | 189 | 4.0 | 0.0 | 0.00 | 0.00 | 0.00 | 83 | 1019.9 |
| 20260506113025 | 19 | 189 | 5.0 | 0.0 | 0.00 | 0.00 | 0.00 | 83 | 1019.8 |
| 20260506112548 | 20 | 189 | 6.0 | 0.0 | 0.00 | 0.00 | 0.00 | 84 | 1019.8 |
| 20260506112006 | 19 | 190 | 6.0 | 0.0 | 0.00 | 0.00 | 0.00 | 83 | 1019.8 |
| 20260506111524 | 19 | 198 | 6.0 | 0.0 | 0.00 | 0.00 | 0.00 | 83 | 1019.7 |
| 20260506111046 | 19 | 203 | 6.0 | 0.0 | 0.00 | 0.00 | 0.00 | 83 | 1019.7 |
| 20260506110503 | 18 | 191 | 5.0 | 0.0 | 0.00 | 0.00 | 0.00 | 83 | 1019.8 |
| 20260506110021 | 18 | 184 | 5.0 | 0.0 | 0.00 | 0.00 | 0.00 | 81 | 1019.8 |
| 20260506105542 | 18 | 184 | 5.0 | 0.0 | 0.00 | 0.00 | 0.00 | 81 | 1019.8 |
| 20260506105103 | 19 | 184 | 5.0 | 0.0 | 0.00 | 0.00 | 0.00 | 82 | 1019.7 |
| 20260506104517 | 19 | 181 | 5.0 | 0.0 | 0.00 | 0.00 | 0.00 | 83 | 1019.7 |
| 20260506104034 | 18 | 187 | 5.0 | 0.0 | 0.00 | 0.00 | 0.00 | 83 | 1019.7 |
| 20260506103554 | 18 | 187 | 5.0 | 0.0 | 0.00 | 0.00 | 0.00 | 84 | 1019.6 |
| 20260506103008 | 17 | 184 | 4.0 | 0.0 | 0.00 | 0.00 | 0.00 | 82 | 1019.6 |
| 20260506102528 | 17 | 184 | 4.0 | 0.0 | 0.00 | 0.00 | 0.00 | 81 | 1019.6 |
| 20260506102045 | 18 | 184 | 5.0 | 0.0 | 0.00 | 0.00 | 0.00 | 80 | 1019.6 |